Home   Weather   Paris   Past weeks
Flag for USA

Past Weather in Paris, New York, USA — Yesterday and Last 2 Weeks

Now
42 °F

Overcast.


Feels Like: 37 °F
Forecast: 52 / 42 °F
Wind: 9 mph from Southeast

Location: Griffiss Air Force Base / Rome

Current Time: Mar 28, 2020 at 11:31:22 pm

Latest Report: Mar 28, 2020 at 10:53 pm


Visibility: 10 mi

Pressure: 30.05 "Hg

Humidity: 89%

Dew Point: 39 °F

Location of ParisLocation

Past Weather in Paris — Graph

°F

Paris Temperature Yesterday

Maximum temperature yesterday: 49 °F (at 3:53 pm)
Minimum temperature yesterday: 31 °F (at 11:53 pm)
Average temperature yesterday: 42 °F

High & Low Weather Summary for the Past Weeks

 TemperatureHumidityPressure
High71 °F (Mar 20, 2:53 pm)96% (Mar 23, 10:53 pm)30.73 "Hg (Mar 23, 10:53 pm)
Low16 °F (Mar 22, 6:53 am)28% (Mar 15, 1:53 pm)29.58 "Hg (Mar 20, 2:53 pm)
Average37 °F68%30.23 "Hg
* Reported Mar 13 9:53 pm — Mar 28 9:53 pm, Paris. Weather by CustomWeather, © 2020

Note: Actual official high and low records may vary slightly from our data, if they occured in-between our weather recording intervals... More about our weather records

Paris Weather History for the Previous 24 Hours

Scroll right to see more
 ConditionsComfort  
Time TempWeatherWind HumidityBarometerVisibility
9:53 pm
Sat, Mar 28
42 °FOvercast.12 mph89%30.06 "Hg8 mi
9:02 pm42 °FLight rain. Fog.10 mph89%30.08 "Hg6 mi
8:53 pm43 °FLight rain. Overcast.10 mph86%30.09 "Hg7 mi
7:53 pm44 °FMostly cloudy.9 mph76%30.05 "Hg10 mi
6:53 pm44 °FOvercast.9 mph79%30.04 "Hg10 mi
5:53 pm45 °FMore clouds than sun.10 mph76%30.02 "Hg10 mi
4:53 pm44 °FLight rain. Overcast.12 mph79%30.03 "Hg10 mi
3:53 pm45 °FLight rain. Mostly cloudy.15 mph76%30.03 "Hg10 mi
2:53 pm44 °FLight rain. Mostly cloudy.8 mph73%30.06 "Hg9 mi
1:53 pm44 °FLight rain. Overcast.10 mph63%30.07 "Hg10 mi
12:53 pm47 °FMostly cloudy.10 mph46%30.09 "Hg10 mi
11:53 am47 °FPartly sunny.13 mph44%30.09 "Hg10 mi
10:53 am44 °FScattered clouds.8 mph53%30.11 "Hg10 mi
9:53 am41 °FSunny.7 mph60%30.11 "Hg10 mi
8:53 am39 °FSunny.7 mph65%30.10 "Hg10 mi
7:53 am35 °FSunny.8 mph67%30.10 "Hg10 mi
6:53 am32 °FSunny.7 mph73%30.09 "Hg10 mi
5:53 am31 °FClear.6 mph76%30.09 "Hg10 mi
4:53 am27 °FClear.No wind85%30.08 "Hg10 mi
3:53 am27 °FClear.3 mph85%30.09 "Hg10 mi
2:53 am28 °FClear.No wind85%30.11 "Hg10 mi
1:53 am29 °FClear.No wind85%30.12 "Hg10 mi
12:53 am29 °FClear.No wind85%30.11 "Hg10 mi
11:53 pm
Fri, Mar 27
31 °FClear.No wind79%30.13 "Hg10 mi
Weather by CustomWeather, © 2020

See weather overview

Advertising